Time,TemperatureF,DewpointF,PressureIn,WindDirection,WindDirectionDegrees,WindSpeedMPH,WindSpeedGustMPH,Humidity,HourlyPrecipIn,Conditions,Clouds,dailyrainin,SoftwareType,DateUTC
2018-01-19 00:08:00,24.0,10.0,-100.00,SSE,165,1.0,2.0,54,-99.99,,,-99.99,,2018-01-19 05:08:00,
2018-01-19 01:08:00,23.0,9.0,-100.00,SSE,165,1.0,2.0,54,-99.99,,,-99.99,,2018-01-19 06:08:00,
2018-01-19 01:37:00,22.0,9.0,-100.00,SSE,165,1.0,1.0,56,-99.99,,,-99.99,,2018-01-19 06:37:00,
2018-01-19 02:08:00,22.0,8.0,-100.00,SSE,165,0.0,1.0,56,-99.99,,,-99.99,,2018-01-19 07:08:00,
2018-01-19 02:37:00,22.0,9.0,-100.00,SSE,165,0.0,1.0,57,-99.99,,,-99.99,,2018-01-19 07:37:00,
2018-01-19 03:08:00,22.0,9.0,-100.00,SSE,165,0.0,1.0,57,-99.99,,,-99.99,,2018-01-19 08:08:00,
2018-01-19 03:37:00,21.0,9.0,-100.00,SSE,165,0.0,1.0,58,-99.99,,,-99.99,,2018-01-19 08:37:00,
2018-01-19 04:08:00,21.0,9.0,-100.00,SSE,165,0.0,1.0,58,-99.99,,,-99.99,,2018-01-19 09:08:00,
2018-01-19 04:37:00,22.0,9.0,-100.00,SSE,165,0.0,2.0,59,-99.99,,,-99.99,,2018-01-19 09:37:00,
2018-01-19 05:08:00,22.0,9.0,-100.00,SSE,165,0.0,1.0,59,-99.99,,,-99.99,,2018-01-19 10:08:00,
2018-01-19 05:37:00,22.0,10.0,-100.00,SSE,165,0.0,2.0,60,-99.99,,,-99.99,,2018-01-19 10:37:00,
2018-01-19 06:08:00,22.0,10.0,-100.00,SSE,165,0.0,1.0,60,-99.99,,,-99.99,,2018-01-19 11:08:00,
2018-01-19 06:37:00,21.0,10.0,-100.00,SSE,165,0.0,1.0,60,-99.99,,,-99.99,,2018-01-19 11:37:00,
2018-01-19 07:08:00,21.0,10.0,-100.00,East,80,1.0,4.0,61,-99.99,,,-99.99,,2018-01-19 12:08:00,
2018-01-19 07:37:00,21.0,10.0,-100.00,ENE,75,1.0,4.0,60,-99.99,,,-99.99,,2018-01-19 12:37:00,
2018-01-19 09:08:00,19.0,9.0,-100.00,WNW,295,1.0,2.0,64,-99.99,,,-99.99,,2018-01-19 14:08:00,
2018-01-19 10:08:00,23.0,10.0,-100.00,ENE,60,2.0,5.0,58,-99.99,,,-99.99,,2018-01-19 15:08:00,
2018-01-19 10:37:00,24.0,11.0,-100.00,ENE,60,3.0,5.0,56,-99.99,,,-99.99,,2018-01-19 15:37:00,
2018-01-19 11:06:00,25.0,11.0,-100.00,NE,40,4.0,6.0,56,-99.99,,,-99.99,,2018-01-19 16:06:00,
2018-01-19 11:36:00,28.0,12.0,-100.00,NE,50,5.0,9.0,51,-99.99,,,-99.99,,2018-01-19 16:36:00,
2018-01-19 12:07:00,30.0,13.0,-100.00,ENE,65,6.0,9.0,50,-99.99,,,-99.99,,2018-01-19 17:07:00,
2018-01-19 12:37:00,31.0,14.0,-100.00,NE,50,4.0,9.0,48,-99.99,,,-99.99,,2018-01-19 17:37:00,
2018-01-19 13:08:00,33.0,15.0,-100.00,ENE,65,5.0,7.0,47,-99.99,,,-99.99,,2018-01-19 18:08:00,
2018-01-19 13:37:00,35.0,17.0,-100.00,NNE,30,2.0,5.0,47,-99.99,,,-99.99,,2018-01-19 18:37:00,
2018-01-19 14:07:00,36.0,17.0,-100.00,NE,35,2.0,6.0,46,-99.99,,,-99.99,,2018-01-19 19:07:00,
2018-01-19 14:37:00,36.0,17.0,-100.00,North,10,6.0,9.0,45,-99.99,,,-99.99,,2018-01-19 19:37:00,
2018-01-19 15:08:00,38.0,18.0,-100.00,ENE,60,3.0,6.0,44,-99.99,,,-99.99,,2018-01-19 20:08:00,
2018-01-19 15:37:00,38.0,19.0,-100.00,NE,35,2.0,7.0,45,-99.99,,,-99.99,,2018-01-19 20:37:00,
2018-01-19 16:08:00,39.0,19.0,-100.00,NE,35,2.0,7.0,44,-99.99,,,-99.99,,2018-01-19 21:08:00,
2018-01-19 16:37:00,39.0,19.0,-100.00,NE,50,4.0,6.0,43,-99.99,,,-99.99,,2018-01-19 21:37:00,
2018-01-19 17:08:00,39.0,19.0,-100.00,SSE,165,1.0,5.0,45,-99.99,,,-99.99,,2018-01-19 22:08:00,
2018-01-19 17:37:00,37.0,19.0,-100.00,NE,45,2.0,6.0,47,-99.99,,,-99.99,,2018-01-19 22:37:00,
2018-01-19 18:08:00,36.0,18.0,-100.00,SSE,165,1.0,4.0,49,-99.99,,,-99.99,,2018-01-19 23:08:00,
2018-01-19 18:37:00,36.0,18.0,-100.00,SSE,165,0.0,2.0,47,-99.99,,,-99.99,,2018-01-19 23:37:00,
2018-01-19 19:07:00,35.0,17.0,-100.00,SSE,165,1.0,1.0,49,-99.99,,,-99.99,,2018-01-20 00:07:00,
2018-01-19 19:36:00,35.0,17.0,-100.00,NE,40,1.0,2.0,49,-99.99,,,-99.99,,2018-01-20 00:36:00,
2018-01-19 20:08:00,34.0,17.0,-100.00,North,5,1.0,4.0,50,-99.99,,,-99.99,,2018-01-20 01:08:00,
2018-01-19 20:36:00,33.0,17.0,-100.00,NE,45,1.0,4.0,51,-99.99,,,-99.99,,2018-01-20 01:36:00,
2018-01-19 21:07:00,34.0,17.0,-100.00,East,80,1.0,2.0,49,-99.99,,,-99.99,,2018-01-20 02:07:00,
2018-01-19 21:36:00,34.0,17.0,-100.00,ENE,65,1.0,4.0,49,-99.99,,,-99.99,,2018-01-20 02:36:00,
2018-01-19 22:07:00,31.0,16.0,-100.00,NW,315,1.0,1.0,53,-99.99,,,-99.99,,2018-01-20 03:07:00,
2018-01-19 22:37:00,30.0,16.0,-100.00,SE,130,0.0,1.0,56,-99.99,,,-99.99,,2018-01-20 03:37:00,